,,,PA_Meas_PMT16A,,PR_Meas_QMR101_102,,RH_Meas_QMH101,,SR_Meas_QMS101,,TA_Meas_QMH101,,GenWind,,GenWind,
date,time,status,PA,status,PR,status,RH,status,SR,status,TA,status,DirAvg,status,SpdAvg,
2009-07-20, 00:00:05,VALID,1001.81,VALID,0,VALID,82.377,VALID,0,VALID,25.3426,VALID,139,VALID,2.45313,
2009-07-20, 00:01:05,VALID,1001.77,VALID,0,VALID,82.4228,VALID,0,VALID,25.3621,VALID,136,VALID,2.26016,
2009-07-20, 00:02:05,VALID,1001.81,VALID,0,VALID,82.522,VALID,0,VALID,25.3602,VALID,137,VALID,2.22305,
2009-07-20, 00:03:05,VALID,1001.83,VALID,0,VALID,82.5067,VALID,0,VALID,25.3817,VALID,130,VALID,2.14648,
2009-07-20, 00:04:05,VALID,1001.82,VALID,0,VALID,82.6212,VALID,0,VALID,25.3817,VALID,131,VALID,1.94297,
2009-07-20, 00:05:05,VALID,1001.81,VALID,0,VALID,82.7432,VALID,0,VALID,25.3621,VALID,144,VALID,2.06094,
2009-07-20, 00:06:05,VALID,1001.81,VALID,0,VALID,82.8119,VALID,0,VALID,25.4012,VALID,155,VALID,1.98984,
2009-07-20, 00:07:05,VALID,1001.8,VALID,0,VALID,82.7203,VALID,0,VALID,25.4012,VALID,146,VALID,1.66953,
2009-07-20, 00:08:05,VALID,1001.78,VALID,0,VALID,82.6517,VALID,0,VALID,25.4012,VALID,144,VALID,1.69102,
2009-07-20, 00:09:05,VALID,1001.77,VALID,0,VALID,82.644,VALID,0,VALID,25.3797,VALID,142,VALID,2.31719,
2009-07-20, 00:10:05,VALID,1001.75,VALID,0,VALID,82.7203,VALID,0,VALID,25.3817,VALID,138,VALID,1.77813,
2009-07-20, 00:11:05,VALID,1001.72,VALID,0,VALID,82.6364,VALID,0,VALID,25.3407,VALID,136,VALID,2.09609,
2009-07-20, 00:12:05,VALID,1001.7,VALID,0,VALID,82.9111,VALID,0,VALID,25.3407,VALID,139,VALID,1.85586,
2009-07-20, 00:13:05,VALID,1001.7,VALID,0,VALID,83.0103,VALID,0,VALID,25.2997,VALID,149,VALID,1.89766,
2009-07-20, 00:14:05,VALID,1001.69,VALID,0,VALID,82.995,VALID,0,VALID,25.2802,VALID,137,VALID,2.25156,
2009-07-20, 00:15:05,VALID,1001.67,VALID,0,VALID,82.8348,VALID,0,VALID,25.3017,VALID,138,VALID,2.27266,
2009-07-20, 00:16:05,VALID,1001.67,VALID,0,VALID,82.9569,VALID,0,VALID,25.3212,VALID,138,VALID,2.09844,
2009-07-20, 00:17:05,VALID,1001.66,VALID,0,VALID,82.9721,VALID,0,VALID,25.3017,VALID,150,VALID,2.03516,
2009-07-20, 00:18:05,VALID,1001.69,VALID,0,VALID,83.0179,VALID,0,VALID,25.3212,VALID,143,VALID,1.97383,
2009-07-20, 00:19:05,VALID,1001.68,VALID,0,VALID,83.0866,VALID,0,VALID,25.3017,VALID,145,VALID,1.31602,
2009-07-20, 00:20:05,VALID,1001.68,VALID,0,VALID,83.1476,VALID,0,VALID,25.2802,VALID,146,VALID,2.04961,
2009-07-20, 00:21:05,VALID,1001.64,VALID,0,VALID,83.1476,VALID,0,VALID,25.3017,VALID,125,VALID,2.63008,
2009-07-20, 00:22:05,VALID,1001.63,VALID,0,VALID,82.6898,VALID,0,VALID,25.3407,VALID,119,VALID,2.94844,
2009-07-20, 00:23:05,VALID,1001.62,VALID,0,VALID,82.5754,VALID,0,VALID,25.3797,VALID,135,VALID,2.12266,
2009-07-20, 00:24:05,VALID,1001.6,VALID,0,VALID,82.6288,VALID,0,VALID,25.3388,VALID,139,VALID,2.58164,
2009-07-20, 00:25:05,VALID,1001.61,VALID,0,VALID,82.8119,VALID,0,VALID,25.3193,VALID,139,VALID,1.89258,
2009-07-20, 00:26:05,VALID,1001.55,VALID,0,VALID,82.8348,VALID,0,VALID,25.3017,VALID,138,VALID,2.14687,
2009-07-20, 00:27:05,VALID,1001.52,VALID,0,VALID,83.0255,VALID,0,VALID,25.3017,VALID,143,VALID,1.90586,
2009-07-20, 00:28:05,VALID,1001.51,VALID,0,VALID,83.1934,VALID,0,VALID,25.2431,VALID,136,VALID,2.50508,
2009-07-20, 00:29:05,VALID,1001.48,VALID,0,VALID,83.2315,VALID,0,VALID,25.2431,VALID,131,VALID,2.04609,
2009-07-20, 00:30:05,VALID,1001.48,VALID,0,VALID,83.2697,VALID,0,VALID,25.2626,VALID,130,VALID,2.10313,
2009-07-20, 00:31:05,VALID,1001.45,VALID,0,VALID,83.3383,VALID,0,VALID,25.2236,VALID,138,VALID,2.46523,
2009-07-20, 00:32:05,VALID,1001.44,VALID,0,VALID,83.3841,VALID,0,VALID,25.2236,VALID,139,VALID,2.28594,
2009-07-20, 00:33:05,VALID,1001.44,VALID,0,VALID,83.4604,VALID,0,VALID,25.204,VALID,139,VALID,2.13203,
2009-07-20, 00:34:05,VALID,1001.42,VALID,0,VALID,83.6283,VALID,0,VALID,25.204,VALID,135,VALID,2.00352,
2009-07-20, 00:35:05,VALID,1001.41,VALID,0,VALID,83.7198,VALID,0,VALID,25.165,VALID,132,VALID,1.85469,
2009-07-20, 00:36:05,VALID,1001.39,VALID,0,VALID,83.758,VALID,0,VALID,25.165,VALID,125,VALID,2.0043,
2009-07-20, 00:37:05,VALID,1001.39,VALID,0,VALID,83.7427,VALID,0,VALID,25.1631,VALID,140,VALID,2.0543,
2009-07-20, 00:38:05,VALID,1001.39,VALID,0,VALID,83.8114,VALID,0,VALID,25.165,VALID,138,VALID,2.55273,
2009-07-20, 00:39:05,VALID,1001.37,VALID,0,VALID,83.8572,VALID,0,VALID,25.1845,VALID,134,VALID,2.07109,
2009-07-20, 00:40:05,VALID,1001.34,VALID,0,VALID,83.9106,VALID,0,VALID,25.165,VALID,130,VALID,1.99102,
2009-07-20, 00:41:05,VALID,1001.33,VALID,0,VALID,83.9716,VALID,0,VALID,25.1241,VALID,131,VALID,1.80977,
2009-07-20, 00:42:05,VALID,1001.32,VALID,0,VALID,83.9258,VALID,0,VALID,25.165,VALID,130,VALID,1.92227,
2009-07-20, 00:43:05,VALID,1001.34,VALID,0,VALID,83.7656,VALID,0,VALID,25.1845,VALID,134,VALID,2.62031,
2009-07-20, 00:44:05,VALID,1001.34,VALID,0,VALID,83.7198,VALID,0,VALID,25.1826,VALID,137,VALID,2.11211,
2009-07-20, 00:45:05,VALID,1001.34,VALID,0,VALID,83.8495,VALID,0,VALID,25.204,VALID,130,VALID,2.30742,
2009-07-20, 00:46:05,VALID,1001.35,VALID,0,VALID,83.8419,VALID,0,VALID,25.204,VALID,126,VALID,2.06445,
2009-07-20, 00:47:05,VALID,1001.32,VALID,0,VALID,83.7122,VALID,0,VALID,25.2236,VALID,124,VALID,1.68711,
2009-07-20, 00:48:05,VALID,1001.33,VALID,0,VALID,83.7046,VALID,0,VALID,25.1826,VALID,125,VALID,1.89414,
2009-07-20, 00:49:05,VALID,1001.34,VALID,0,VALID,83.674,VALID,0,VALID,25.204,VALID,133,VALID,1.88633,
2009-07-20, 00:50:05,VALID,1001.35,VALID,0,VALID,83.5443,VALID,0,VALID,25.2236,VALID,153,VALID,1.66016,
2009-07-20, 00:51:05,VALID,1001.31,VALID,0,VALID,83.3994,VALID,0,VALID,25.2431,VALID,154,VALID,2.13242,
2009-07-20, 00:52:05,VALID,1001.28,VALID,0,VALID,83.0866,VALID,0,VALID,25.2821,VALID,154,VALID,1.84766,
2009-07-20, 00:53:05,VALID,1001.26,VALID,0,VALID,82.9492,VALID,0,VALID,25.2821,VALID,164,VALID,1.43828,
2009-07-20, 00:54:05,VALID,1001.26,VALID,0,VALID,83.0484,VALID,0,VALID,25.2626,VALID,142,VALID,1.87656,
2009-07-20, 00:55:05,VALID,1001.2,VALID,0,VALID,83.2163,VALID,0,VALID,25.2412,VALID,139,VALID,1.56562,
2009-07-20, 00:56:05,VALID,1001.17,VALID,0,VALID,83.3002,VALID,0,VALID,25.2217,VALID,128,VALID,1.36133,
2009-07-20, 00:57:05,VALID,1001.17,VALID,0,VALID,83.3841,VALID,0,VALID,25.2021,VALID,139,VALID,1.46133,
2009-07-20, 00:58:05,VALID,1001.14,VALID,0,VALID,83.4299,VALID,0,VALID,25.1826,VALID,148,VALID,1.08633,
2009-07-20, 00:59:05,VALID,1001.14,VALID,0,VALID,83.5749,VALID,0,VALID,25.1631,VALID,141,VALID,1.16172,
2009-07-20, 01:00:05,VALID,1001.14,VALID,0,VALID,83.674,VALID,0,VALID,25.1241,VALID,143,VALID,1.31562,
2009-07-20, 01:01:05,VALID,1001.12,VALID,0,VALID,83.7961,VALID,0,VALID,25.1045,VALID,143,VALID,1.43086,
2009-07-20, 01:02:05,VALID,1001.09,VALID,0,VALID,83.9106,VALID,0,VALID,25.085,VALID,117,VALID,1.45117,
2009-07-20, 01:03:05,VALID,1001.08,VALID,0,VALID,84.0632,VALID,0,VALID,25.046,VALID,119,VALID,1.81445,
2009-07-20, 01:04:05,VALID,1001.06,VALID,0,VALID,84.1929,VALID,0,VALID,25.0265,VALID,122,VALID,1.63281,
2009-07-20, 01:05:05,VALID,1001.05,VALID,0,VALID,84.2539,VALID,0,VALID,25.046,VALID,124,VALID,1.78164,
2009-07-20, 01:06:05,VALID,1001.05,VALID,0,VALID,84.3226,VALID,0.112286,VALID,25.0674,VALID,115,VALID,1.3418,
2009-07-20, 01:07:05,VALID,1001.01,VALID,0,VALID,84.437,VALID,0,VALID,25.0265,VALID,130,VALID,1.85469,
2009-07-20, 01:08:05,VALID,1001.03,VALID,0,VALID,84.4065,VALID,0,VALID,25.0265,VALID,128,VALID,1.98945,
2009-07-20, 01:09:05,VALID,1001.02,VALID,0,VALID,84.3302,VALID,0,VALID,25.0265,VALID,125,VALID,2.02539,
2009-07-20, 01:10:05,VALID,1001.01,VALID,0,VALID,84.2157,VALID,0,VALID,25.046,VALID,137,VALID,1.76914,
2009-07-20, 01:11:05,VALID,1001.01,VALID,0,VALID,84.1623,VALID,0,VALID,25.0674,VALID,144,VALID,1.60234,
2009-07-20, 01:12:05,VALID,1001,VALID,0,VALID,84.1166,VALID,0,VALID,25.0674,VALID,139,VALID,2.18242,
2009-07-20, 01:13:05,VALID,1001.02,VALID,0,VALID,84.1318,VALID,0,VALID,25.046,VALID,138,VALID,1.75859,
2009-07-20, 01:14:05,VALID,1001.03,VALID,0,VALID,84.2234,VALID,0,VALID,25.046,VALID,126,VALID,1.63398,
2009-07-20, 01:15:05,VALID,1001.03,VALID,0,VALID,84.3683,VALID,0.112286,VALID,25.0265,VALID,124,VALID,1.36094,
2009-07-20, 01:16:05,VALID,1001.04,VALID,0,VALID,84.498,VALID,0,VALID,24.9893,VALID,123,VALID,1.18398,
2009-07-20, 01:17:05,VALID,1001.05,VALID,0,VALID,84.643,VALID,0,VALID,24.9289,VALID,143,VALID,1.27422,
2009-07-20, 01:18:05,VALID,1001.03,VALID,0,VALID,84.5896,VALID,0,VALID,24.9503,VALID,129,VALID,1.21406,
2009-07-20, 01:19:05,VALID,1001.04,VALID,0,VALID,84.5515,VALID,0,VALID,24.9289,VALID,125,VALID,1.21953,
2009-07-20, 01:20:05,VALID,1001,VALID,0,VALID,84.5362,VALID,0,VALID,24.9289,VALID,139,VALID,0.994531,
2009-07-20, 01:21:05,VALID,1000.97,VALID,0,VALID,84.5972,VALID,0,VALID,24.9093,VALID,141,VALID,1.39414,
2009-07-20, 01:22:05,VALID,1000.98,VALID,0,VALID,84.5972,VALID,0,VALID,24.9093,VALID,146,VALID,1.17969,
2009-07-20, 01:23:05,VALID,1000.95,VALID,0,VALID,84.6888,VALID,0,VALID,24.9112,VALID,144,VALID,1.25352,
2009-07-20, 01:24:05,VALID,1000.91,VALID,0,VALID,84.704,VALID,0,VALID,24.8898,VALID,137,VALID,1.31133,
2009-07-20, 01:25:05,VALID,1000.95,VALID,0,VALID,84.7574,VALID,0,VALID,24.8703,VALID,147,VALID,1.40781,
2009-07-20, 01:26:05,VALID,1000.94,VALID,0,VALID,84.7117,VALID,0,VALID,24.8703,VALID,139,VALID,1.48047,
2009-07-20, 01:27:05,VALID,1000.92,VALID,0,VALID,84.7574,VALID,0.112286,VALID,24.8703,VALID,121,VALID,1.18633,
2009-07-20, 01:28:05,VALID,1000.94,VALID,0,VALID,84.5896,VALID,0.112286,VALID,24.8898,VALID,132,VALID,1.75234,
2009-07-20, 01:29:05,VALID,1000.93,VALID,0,VALID,84.3989,VALID,0,VALID,24.9093,VALID,144,VALID,1.59922,
2009-07-20, 01:30:05,VALID,1000.93,VALID,0,VALID,84.3149,VALID,0,VALID,24.9093,VALID,138,VALID,1.65469,
2009-07-20, 01:31:05,VALID,1000.94,VALID,0,VALID,84.1852,VALID,0.112286,VALID,24.9484,VALID,138,VALID,1.65937,
2009-07-20, 01:32:05,VALID,1000.93,VALID,0,VALID,84.1013,VALID,0,VALID,24.9679,VALID,134,VALID,1.37852,
2009-07-20, 01:33:05,VALID,1000.89,VALID,0,VALID,84.0326,VALID,0,VALID,24.9874,VALID,139,VALID,1.96602,
2009-07-20, 01:34:05,VALID,1000.89,VALID,0,VALID,84.0555,VALID,0,VALID,24.9679,VALID,140,VALID,1.72656,
2009-07-20, 01:35:05,VALID,1000.88,VALID,0,VALID,84.0326,VALID,0.112286,VALID,24.9874,VALID,146,VALID,1.43047,
2009-07-20, 01:36:05,VALID,1000.85,VALID,0,VALID,84.0479,VALID,0,VALID,24.9679,VALID,134,VALID,1.12188,
2009-07-20, 01:37:05,VALID,1000.89,VALID,0,VALID,84.2081,VALID,0,VALID,24.9484,VALID,134,VALID,1.16562,
2009-07-20, 01:38:05,VALID,1000.88,VALID,0,VALID,84.2768,VALID,0.112286,VALID,24.9093,VALID,125,VALID,1.75977,
2009-07-20, 01:39:05,VALID,1000.83,VALID,0,VALID,84.2692,VALID,0.112286,VALID,24.9093,VALID,128,VALID,1.52383,
2009-07-20, 01:40:05,VALID,1000.83,VALID,0,VALID,84.2081,VALID,0,VALID,24.9484,VALID,136,VALID,1.49805,
2009-07-20, 01:41:05,VALID,1000.85,VALID,0,VALID,84.2005,VALID,0,VALID,24.9289,VALID,147,VALID,1.29844,
2009-07-20, 01:42:05,VALID,1000.84,VALID,0,VALID,84.3226,VALID,0,VALID,24.9093,VALID,144,VALID,1.46641,
2009-07-20, 01:43:05,VALID,1000.83,VALID,0,VALID,84.5133,VALID,0,VALID,24.8703,VALID,138,VALID,1.49844,
2009-07-20, 01:44:05,VALID,1000.81,VALID,0,VALID,84.7498,VALID,0,VALID,24.8508,VALID,130,VALID,1.66836,
2009-07-20, 01:45:05,VALID,1000.79,VALID,0,VALID,84.8032,VALID,0,VALID,24.8117,VALID,110,VALID,1.15195,
2009-07-20, 01:46:05,VALID,1000.8,VALID,0,VALID,84.8643,VALID,0,VALID,24.7922,VALID,116,VALID,1.71289,
2009-07-20, 01:47:05,VALID,1000.76,VALID,0,VALID,85.0626,VALID,0,VALID,24.7532,VALID,109,VALID,1.58203,
2009-07-20, 01:48:05,VALID,1000.78,VALID,0,VALID,85.2381,VALID,0,VALID,24.7356,VALID,109,VALID,1.53555,
2009-07-20, 01:49:05,VALID,1000.75,VALID,0,VALID,85.3983,VALID,0.112286,VALID,24.7337,VALID,113,VALID,1.95547,
2009-07-20, 01:50:05,VALID,1000.76,VALID,0,VALID,85.4594,VALID,0,VALID,24.7142,VALID,121,VALID,1.89844,
2009-07-20, 01:51:05,VALID,1000.78,VALID,0,VALID,85.2457,VALID,0,VALID,24.7337,VALID,122,VALID,2.23945,
2009-07-20, 01:52:05,VALID,1000.77,VALID,0,VALID,85.1084,VALID,0,VALID,24.7727,VALID,121,VALID,1.44922,
2009-07-20, 01:53:05,VALID,1000.77,VALID,0,VALID,84.9787,VALID,0,VALID,24.7727,VALID,117,VALID,1.56641,
2009-07-20, 01:54:05,VALID,1000.77,VALID,0,VALID,84.8032,VALID,0,VALID,24.7922,VALID,114,VALID,1.98477,
2009-07-20, 01:55:05,VALID,1000.76,VALID,0,VALID,84.6812,VALID,0.112286,VALID,24.7903,VALID,113,VALID,2.19609,
2009-07-20, 01:56:05,VALID,1000.8,VALID,0,VALID,84.6659,VALID,0,VALID,24.8332,VALID,113,VALID,2.19492,
2009-07-20, 01:57:05,VALID,1000.77,VALID,0,VALID,84.6354,VALID,0,VALID,24.8117,VALID,119,VALID,1.78594,
2009-07-20, 01:58:05,VALID,1000.81,VALID,0,VALID,84.6049,VALID,0,VALID,24.8527,VALID,120,VALID,1.97305,
2009-07-20, 01:59:05,VALID,1000.83,VALID,0,VALID,84.5896,VALID,0,VALID,24.8313,VALID,124,VALID,1.69414,
2009-07-20, 02:00:05,VALID,1000.77,VALID,0,VALID,84.5515,VALID,0,VALID,24.8527,VALID,122,VALID,2.45273,
2009-07-20, 02:01:05,VALID,1000.78,VALID,0,VALID,84.3912,VALID,0,VALID,24.8722,VALID,134,VALID,1.86211,
2009-07-20, 02:02:05,VALID,1000.79,VALID,0,VALID,84.3912,VALID,0,VALID,24.8703,VALID,125,VALID,1.30664,
2009-07-20, 02:03:05,VALID,1000.75,VALID,0,VALID,84.1776,VALID,0,VALID,24.8898,VALID,127,VALID,2.17969,
2009-07-20, 02:04:05,VALID,1000.79,VALID,0,VALID,83.9029,VALID,0,VALID,24.9093,VALID,112,VALID,2.38594,
2009-07-20, 02:05:05,VALID,1000.79,VALID,0,VALID,83.9716,VALID,0,VALID,24.9289,VALID,137,VALID,2.06094,
2009-07-20, 02:06:05,VALID,1000.81,VALID,0,VALID,83.7809,VALID,0,VALID,24.9698,VALID,144,VALID,1.81328,
2009-07-20, 02:07:05,VALID,1000.82,VALID,0,VALID,83.8114,VALID,0,VALID,24.9698,VALID,140,VALID,1.4375,
2009-07-20, 02:08:05,VALID,1000.82,VALID,0,VALID,83.7198,VALID,0,VALID,24.9698,VALID,139,VALID,1.44961,
2009-07-20, 02:09:05,VALID,1000.85,VALID,0,VALID,83.7503,VALID,0.112286,VALID,24.9679,VALID,151,VALID,1.15586,
2009-07-20, 02:10:05,VALID,1000.87,VALID,0,VALID,83.7503,VALID,0.112286,VALID,24.9484,VALID,168,VALID,1.63789,
2009-07-20, 02:11:05,VALID,1000.86,VALID,0,VALID,83.552,VALID,0,VALID,24.9874,VALID,174,VALID,1.58711,
2009-07-20, 02:12:05,VALID,1000.85,VALID,0,VALID,83.346,VALID,0,VALID,25.0284,VALID,163,VALID,1.62656,
2009-07-20, 02:13:05,VALID,1000.84,VALID,0,VALID,83.2315,VALID,0,VALID,25.0479,VALID,132,VALID,1.31602,
2009-07-20, 02:14:05,VALID,1000.86,VALID,0,VALID,83.262,VALID,0,VALID,25.0265,VALID,135,VALID,1.19531,
2009-07-20, 02:15:05,VALID,1000.83,VALID,0,VALID,83.262,VALID,0.112286,VALID,25.0069,VALID,130,VALID,1.30664,
2009-07-20, 02:16:05,VALID,1000.81,VALID,0,VALID,83.4146,VALID,0,VALID,25.0088,VALID,122,VALID,0.687109,
2009-07-20, 02:17:05,VALID,1000.79,VALID,0,VALID,83.6588,VALID,0,VALID,24.9503,VALID,123,VALID,0.925391,
2009-07-20, 02:18:05,VALID,1000.77,VALID,0,VALID,83.7427,VALID,0,VALID,24.9308,VALID,147,VALID,0.717578,
2009-07-20, 02:19:05,VALID,1000.75,VALID,0,VALID,83.8343,VALID,0,VALID,24.8722,VALID,166,VALID,0.872266,
2009-07-20, 02:20:05,VALID,1000.74,VALID,0,VALID,84.086,VALID,0,VALID,24.8313,VALID,190,VALID,1.01211,
2009-07-20, 02:21:05,VALID,1000.74,VALID,0,VALID,84.0479,VALID,0,VALID,24.8527,VALID,151,VALID,0.702344,
2009-07-20, 02:22:05,VALID,1000.73,VALID,0,VALID,84.231,VALID,0,VALID,24.8117,VALID,149,VALID,0.971875,
2009-07-20, 02:23:05,VALID,1000.72,VALID,0,VALID,84.3378,VALID,0,VALID,24.7922,VALID,141,VALID,0.925,
2009-07-20, 02:24:05,VALID,1000.73,VALID,0,VALID,84.3378,VALID,0,VALID,24.7922,VALID,132,VALID,0.905078,
2009-07-20, 02:25:05,VALID,1000.72,VALID,0,VALID,84.3455,VALID,0,VALID,24.7922,VALID,133,VALID,1.06641,
2009-07-20, 02:26:05,VALID,1000.72,VALID,0,VALID,84.3912,VALID,0,VALID,24.7746,VALID,123,VALID,1.41445,
2009-07-20, 02:27:05,VALID,1000.7,VALID,0,VALID,84.3683,VALID,0,VALID,24.7746,VALID,122,VALID,1.53984,
2009-07-20, 02:28:05,VALID,1000.71,VALID,0,VALID,84.2692,VALID,0,VALID,24.7941,VALID,133,VALID,1.28828,
2009-07-20, 02:29:05,VALID,1000.7,VALID,0,VALID,84.2539,VALID,0,VALID,24.8136,VALID,140,VALID,1.46914,
2009-07-20, 02:30:05,VALID,1000.73,VALID,0,VALID,84.2234,VALID,0,VALID,24.7941,VALID,137,VALID,1.95508,
2009-07-20, 02:31:05,VALID,1000.68,VALID,0,VALID,84.0708,VALID,0,VALID,24.8332,VALID,136,VALID,1.90859,
2009-07-20, 02:32:05,VALID,1000.73,VALID,0,VALID,83.88,VALID,0,VALID,24.8722,VALID,136,VALID,1.54844,
2009-07-20, 02:33:05,VALID,1000.7,VALID,0,VALID,83.8495,VALID,0,VALID,24.8722,VALID,135,VALID,1.27148,
2009-07-20, 02:34:05,VALID,1000.71,VALID,0,VALID,83.8877,VALID,0,VALID,24.8722,VALID,131,VALID,1.44805,
2009-07-20, 02:35:05,VALID,1000.71,VALID,0,VALID,83.88,VALID,0,VALID,24.8527,VALID,137,VALID,1.41758,
2009-07-20, 02:36:05,VALID,1000.7,VALID,0,VALID,83.9182,VALID,0,VALID,24.8741,VALID,149,VALID,1.23398,
2009-07-20, 02:37:05,VALID,1000.71,VALID,0,VALID,84.0021,VALID,0,VALID,24.8741,VALID,145,VALID,1.18906,
2009-07-20, 02:38:04,VALID,1000.7,VALID,0,VALID,83.9869,VALID,0,VALID,24.8332,VALID,141,VALID,1.26094,
2009-07-20, 02:39:04,VALID,1000.69,VALID,0,VALID,84.1318,VALID,0,VALID,24.8136,VALID,136,VALID,1.08672,
2009-07-20, 02:40:04,VALID,1000.7,VALID,0,VALID,84.2997,VALID,0,VALID,24.7941,VALID,137,VALID,1.21055,
2009-07-20, 02:41:04,VALID,1000.69,VALID,0,VALID,84.4141,VALID,0.112286,VALID,24.7337,VALID,139,VALID,1.22539,
2009-07-20, 02:42:04,VALID,1000.68,VALID,0,VALID,84.6812,VALID,0.112286,VALID,24.6751,VALID,143,VALID,1.52734,
2009-07-20, 02:43:04,VALID,1000.67,VALID,0,VALID,84.6735,VALID,0,VALID,24.6751,VALID,143,VALID,1.47187,
2009-07-20, 02:44:04,VALID,1000.67,VALID,0,VALID,84.5362,VALID,0,VALID,24.6751,VALID,143,VALID,1.46133,
2009-07-20, 02:45:04,VALID,1000.69,VALID,0,VALID,84.437,VALID,0,VALID,24.6946,VALID,135,VALID,1.25273,
2009-07-20, 02:46:04,VALID,1000.67,VALID,0,VALID,84.4446,VALID,0,VALID,24.6946,VALID,128,VALID,1.18555,
2009-07-20, 02:47:04,VALID,1000.71,VALID,0,VALID,84.3989,VALID,0,VALID,24.7142,VALID,134,VALID,0.971094,
2009-07-20, 02:48:04,VALID,1000.7,VALID,0,VALID,84.376,VALID,0,VALID,24.6946,VALID,137,VALID,0.972656,
2009-07-20, 02:49:04,VALID,1000.73,VALID,0,VALID,84.2768,VALID,0,VALID,24.6946,VALID,143,VALID,1.12266,
2009-07-20, 02:50:04,VALID,1000.74,VALID,0,VALID,84.2997,VALID,0,VALID,24.716,VALID,144,VALID,0.976563,
2009-07-20, 02:51:04,VALID,1000.71,VALID,0,VALID,84.3302,VALID,0,VALID,24.6946,VALID,146,VALID,0.994531,
2009-07-20, 02:52:04,VALID,1000.75,VALID,0,VALID,84.3149,VALID,0,VALID,24.6946,VALID,147,VALID,0.627344,
2009-07-20, 02:53:04,VALID,1000.73,VALID,0,VALID,84.5133,VALID,0,VALID,24.6965,VALID,143,VALID,0.507813,
2009-07-20, 02:54:04,VALID,1000.78,VALID,0,VALID,84.5743,VALID,0,VALID,24.677,VALID,138,VALID,0.490625,
2009-07-20, 02:55:04,VALID,1000.75,VALID,0,VALID,84.7346,VALID,0.112286,VALID,24.6575,VALID,138,VALID,0.413672,
2009-07-20, 02:56:04,VALID,1000.77,VALID,0,VALID,84.8261,VALID,0,VALID,24.6203,VALID,138,VALID,0.41875,
2009-07-20, 02:57:04,VALID,1000.76,VALID,0,VALID,84.9482,VALID,0,VALID,24.5599,VALID,138,VALID,0.425,
2009-07-20, 02:58:04,VALID,1000.73,VALID,0,VALID,85.055,VALID,0,VALID,24.5404,VALID,138,VALID,0.255469,
2009-07-20, 02:59:04,VALID,1000.74,VALID,0,VALID,85.0626,VALID,0,VALID,24.5209,VALID,138,VALID,0.166406,
2009-07-20, 03:00:04,VALID,1000.72,VALID,0,VALID,85.1389,VALID,0,VALID,24.5013,VALID,138,VALID,0.295703,
2009-07-20, 03:01:04,VALID,1000.73,VALID,0,VALID,85.1389,VALID,0,VALID,24.4818,VALID,138,VALID,0.310156,
2009-07-20, 03:02:04,VALID,1000.72,VALID,0,VALID,85.1847,VALID,0,VALID,24.4623,VALID,138,VALID,0.284766,
2009-07-20, 03:03:04,VALID,1000.69,VALID,0,VALID,85.1923,VALID,0,VALID,24.4837,VALID,138,VALID,0.307031,
2009-07-20, 03:04:04,VALID,1000.7,VALID,0,VALID,85.1923,VALID,0,VALID,24.4837,VALID,138,VALID,0.299219,
2009-07-20, 03:05:04,VALID,1000.69,VALID,0,VALID,85.1771,VALID,0,VALID,24.4623,VALID,138,VALID,0.287109,
2009-07-20, 03:06:04,VALID,1000.68,VALID,0,VALID,85.0016,VALID,0,VALID,24.4428,VALID,138,VALID,0.307422,
2009-07-20, 03:07:04,VALID,1000.69,VALID,0,VALID,84.6277,VALID,0,VALID,24.3647,VALID,128,VALID,0.315234,
2009-07-20, 03:08:04,VALID,1000.65,VALID,0,VALID,85.3983,VALID,0,VALID,24.2476,VALID,38,VALID,0.517187,
2009-07-20, 03:09:04,VALID,1000.67,VALID,0,VALID,86.085,VALID,0,VALID,24.1519,VALID,38,VALID,0.167578,
2009-07-20, 03:10:04,VALID,1000.64,VALID,0,VALID,86.3597,VALID,0,VALID,24.072,VALID,38,VALID,0.241016,
2009-07-20, 03:11:04,VALID,1000.6,VALID,0,VALID,86.8251,VALID,0,VALID,24.0116,VALID,38,VALID,0.283984,
2009-07-20, 03:12:04,VALID,1000.59,VALID,0,VALID,87.4583,VALID,0,VALID,23.9744,VALID,38,VALID,0.0792969,
2009-07-20, 03:13:04,VALID,1000.56,VALID,0,VALID,87.5117,VALID,0,VALID,23.9336,VALID,59,VALID,0.598828,
2009-07-20, 03:14:04,VALID,1000.56,VALID,0,VALID,87.9771,VALID,0,VALID,23.914,VALID,100,VALID,0.713672,
2009-07-20, 03:15:04,VALID,1000.55,VALID,0,VALID,88.1297,VALID,0,VALID,23.9336,VALID,97,VALID,0.690234,
2009-07-20, 03:16:04,VALID,1000.52,VALID,0,VALID,87.8322,VALID,0,VALID,23.9726,VALID,91,VALID,0.655469,
2009-07-20, 03:17:04,VALID,1000.53,VALID,0,VALID,88.0382,VALID,0,VALID,23.9939,VALID,86,VALID,0.738281,
2009-07-20, 03:18:04,VALID,1000.52,VALID,0,VALID,88.2289,VALID,0,VALID,23.9921,VALID,86,VALID,0.689844,
2009-07-20, 03:19:04,VALID,1000.49,VALID,0,VALID,88.5341,VALID,0,VALID,23.9921,VALID,84,VALID,0.602734,
2009-07-20, 03:20:04,VALID,1000.46,VALID,0,VALID,88.7172,VALID,0,VALID,23.9726,VALID,71,VALID,0.609375,
2009-07-20, 03:21:04,VALID,1000.46,VALID,0,VALID,88.7096,VALID,0,VALID,23.9549,VALID,49,VALID,0.692578,
2009-07-20, 03:22:04,VALID,1000.44,VALID,0,VALID,88.1755,VALID,0,VALID,23.8945,VALID,37,VALID,0.591016,
2009-07-20, 03:23:04,VALID,1000.45,VALID,0,VALID,87.9543,VALID,0,VALID,23.7561,VALID,36,VALID,0.664844,
2009-07-20, 03:24:04,VALID,1000.44,VALID,0,VALID,88.2442,VALID,0,VALID,23.6799,VALID,36,VALID,0.560938,
2009-07-20, 03:25:04,VALID,1000.48,VALID,0,VALID,88.0153,VALID,0,VALID,23.6409,VALID,36,VALID,0.274219,
2009-07-20, 03:26:04,VALID,1000.47,VALID,0,VALID,87.9695,VALID,0,VALID,23.5433,VALID,36,VALID,0.198828,
2009-07-20, 03:27:04,VALID,1000.52,VALID,0,VALID,88.496,VALID,0,VALID,23.4848,VALID,36,VALID,0.3,
2009-07-20, 03:28:04,VALID,1000.52,VALID,0,VALID,88.9919,VALID,0,VALID,23.4263,VALID,36,VALID,0.744141,
2009-07-20, 03:29:04,VALID,1000.53,VALID,0,VALID,89.5336,VALID,0,VALID,23.4263,VALID,36,VALID,1.01953,
2009-07-20, 03:30:04,VALID,1000.53,VALID,0,VALID,89.8388,VALID,0,VALID,23.4475,VALID,36,VALID,1.10352,
2009-07-20, 03:31:04,VALID,1000.54,VALID,0,VALID,88.3586,VALID,0,VALID,23.4103,VALID,36,VALID,1.19453,
2009-07-20, 03:32:04,VALID,1000.59,VALID,0,VALID,89.7091,VALID,0,VALID,23.3323,VALID,38,VALID,1.38359,
2009-07-20, 03:33:04,VALID,1000.58,VALID,0,VALID,90.3805,VALID,0,VALID,23.2719,VALID,45,VALID,1.16289,
2009-07-20, 03:34:04,VALID,1000.57,VALID,0,VALID,90.3194,VALID,0,VALID,23.2719,VALID,48,VALID,1.38867,
2009-07-20, 03:35:04,VALID,1000.57,VALID,0,VALID,89.7701,VALID,0,VALID,23.2329,VALID,77,VALID,1.44492,
2009-07-20, 03:36:04,VALID,1000.55,VALID,0,VALID,89.4649,VALID,0,VALID,23.1939,VALID,52,VALID,1.22617,
2009-07-20, 03:37:04,VALID,1000.52,VALID,0,VALID,89.8846,VALID,0,VALID,23.1939,VALID,52,VALID,1.25234,
2009-07-20, 03:38:04,VALID,1000.52,VALID,0,VALID,89.7472,VALID,0,VALID,23.1549,VALID,59,VALID,1.16289,
2009-07-20, 03:39:04,VALID,1000.52,VALID,0,VALID,90.6551,VALID,0,VALID,23.1549,VALID,59,VALID,1.32383,
2009-07-20, 03:40:04,VALID,1000.52,VALID,0,VALID,90.472,VALID,0,VALID,23.1549,VALID,58,VALID,1.23203,
2009-07-20, 03:41:04,VALID,1000.53,VALID,0,VALID,90.5941,VALID,0,VALID,23.1159,VALID,62,VALID,1.1375,
2009-07-20, 03:42:04,VALID,1000.53,VALID,0,VALID,91.38,VALID,0,VALID,23.1744,VALID,62,VALID,1.25117,
2009-07-20, 03:43:04,VALID,1000.5,VALID,0,VALID,91.3952,VALID,0,VALID,23.1744,VALID,53,VALID,1.13437,
2009-07-20, 03:44:04,VALID,1000.52,VALID,0,VALID,91.3342,VALID,0,VALID,23.1549,VALID,54,VALID,0.930078,
2009-07-20, 03:45:04,VALID,1000.55,VALID,0,VALID,91.3037,VALID,0,VALID,23.1354,VALID,64,VALID,0.891797,